COSMOS 2061

Satellite information

Favourite Embed

Satellite Type and Status

PAYLOADIN ORBIT

Key statistics

Satellite COSMOS 2061 at a glance.

Uptime

12997

Days in orbit

Revolutions

≈ 13.7

Per day

Orbit

LEO

Low Earth Orbit

Inclination

82.9

Latest

Satellite identification and parameters

Extended collection of information and parameters for COSMOS 2061.

Object identification

Identified? True

Debris? False

Object name: COSMOS 2061

International designator: 1990-023A

Object number (NORAD): 20527

Object ID (CCSDS): 20527

Country: COMMONWEALTH OF INDEPENDENT STATES (CIS)

Current information (Y/N): Y

RCS size: LARGE

Orbital parameters

Period: 104.929 minutes

Inclination: 82.9397 deg

SMA: 7369.253 km

Apoapsis: 1013.501 km

Periapsis: 968.735 km

RAAN: 347.462 deg

Eccentricy: 0.00303732

Argument of periapsis: 212.7714 deg

Mean anomaly: 320.6685 deg

Mean motion: 13.72358439 rev/day

Mean motion (dot): 0.00000088 rev/day2

B* drag term: 0.000080293581 1/REarth

Two-line elements (TLE)

Creation date: Oct. 19, 2025, 2:20 a.m.

Reference frame: TEME

Reference center: EARTH

Epoch: Oct. 18, 2025, 10:14 p.m. UTC

TLE line 0: 0 COSMOS 2061

TLE line 1: 1 20527U 90023A 25291.92690472 .00000088 00000-0 80294-4 0 9991

TLE line 2: 2 20527 82.9397 347.4620 0030373 212.7714 320.6685 13.72358439781711

Live tracking on map

Real-time ground track for satellite COSMOS 2061.

In-orbit conjunctions

A list of the most updated potential collisions computed for object COSMOS 2061.

Target Orbit TCA Probability of collision Miss distance Type
CZ-4C DEB SSO 2025-01-02 11:50:47 0.0002336494 528.0 (m) DEBRIS

Associated space launch

Navigation satellite providing location information for the Tsiklon-B navigation system

COSMOS 2061 was lifted into orbit during the mission ‘Kosmos-3M | Parus 68’, on board a Kosmos-3M space rocket.

The launch took place on March 20, 1990, 12:25 a.m. from 133/3 (133L).

For more information about the launch, click the button.

Launch to space Kosmos-3M | Parus 68
Kosmos-3M | Parus 68

Agency: N/A

Status: Launch Successful

Launch date: March 20, 1990, 12:25 a.m. UTC

Rocket: Kosmos-3M

Launch pad: 133/3 (133L)

Location: Plesetsk Cosmodrome, Russian Federation

...

Latest news about this satellite

There are no fresh news available about this satellite. Check back as we update our databases every day.


Newsletter sign-up

Weekly statistics, charts and insights to help you stay on top of the space industry.